User: anonymous   Login
Location: Valdosta
(30.8330°N, 83.2790°W)
Time: 04:37:35
(UTC-04:00)
Language:

Uribyol 2 - Orbit

View from above orbital plane
View from above orbital plane
View from above satellite
View from above satellite

Ground track
Ground track

The orbit data is extracted from the following two-line orbital elements,

1 22828U 93061F   14295.09281625  .00000359  00000-0  15533-3 0  7428
2 22828 098.6632 240.0343 0008942 245.3749 114.6502 14.30363713 67385
Epoch (UTC): 22 October 2014 02:13:39
Eccentricity: 0.0008942
inclination: 98.6632°
perigee height: 784 km
apogee height: 797 km
right ascension of ascending node: 240.0343°
argument of perigee: 245.3749°
revolutions per day: 14.30363713
mean anomaly at epoch: 114.6502°
orbit number at epoch: 6738

The dashed part of the orbit path shows where the satellite is in the earth's shadow,  

DLR